Location: Newark
(7.0858°N, 171.3717°E)
Time: 11:39:45
(UTC+00:00)

STARLINK-3045 - Pass Details

Date: 28 September 2021
Orbit: 357 x 362 km, 70.0° (Epoch: 19 October)

Event Time Altitude Azimuth Distance (km) Brightness Sun altitude
Rises 17:31:47 0° 183° (S) 2,171 6.7 -13.5°
Reaches altitude 10° 17:33:53 10° 173° (S) 1,326 5.7 -13.0°
Maximum altitude 17:36:32 33° 106° (ESE) 628 4.7 -12.3°
Drops below altitude 10° 17:39:11 10° 40° (NE) 1,321 6.1 -11.7°
Sets 17:41:16 0° 30° (NNE) 2,162 7.1 -11.1°
